Location: ?????
(54.9266°N, 38.5527°E)
Time: 18:51:29
(UTC+00:00)

H-2A R/B - Visible Passes

Search period start: 12 July 2024 00:00
Search period end: 22 July 2024 00:00
Orbit: 731 x 833 km, 98.2° (Epoch: 11 July)

Date Brightness Start Highest point End Pass type
(mag) Time Alt. Az. Time Alt. Az. Time Alt. Az.
13 Jul 4.8 00:07:11 10° ENE 00:08:42 11° E 00:10:13 10° E visible
16 Jul 4.7 00:10:41 10° ENE 00:12:38 12° E 00:14:35 10° ESE visible
19 Jul 4.7 00:14:16 10° NE 00:16:34 13° E 00:18:50 10° ESE visible
